Regional Weather Roundup
Issued by NWS

Home | Current Version | Previous Version | Graphics & Text | Print | Product List | Glossary On
Versions: 1 2 3 4 5 6 7 8 9 10 11 12 13 14 15 16 17 18 19 20 21 22 23 24 25 26 27 28 29 30 31 32 33 34 35 36 37 38 39 40 41 42 43 44 45 46 47 48 49 50
000
ASUS43 KLMK 290502
RWRKY
KENTUCKY REGIONAL WEATHER ROUNDUP
NATIONAL WEATHER SERVICE LOUISVILLE KY
100 AM EDT THU JUN 29 2017

NOTE "FAIR" INDICATES FEW OR NO CLOUDS BELOW 12,000 FEET
WITH NO SIGNIFICANT WEATHER AND/OR OBSTRUCTIONS TO VISIBILITY.

KYZ001>023-026-027-061>063-070>075-290600-
WESTERN AND SOUTH CENTRAL KENTUCKY

CITY           SKY/WX    TMP DP  RH WIND       PRES   REMARKS
PADUCAH        PTCLDY    74  64  71 S9        29.97S
HENDERSON      CLOUDY    73  64  73 S8        29.99S
OWENSBORO      CLEAR     71  62  73 S6        30.00F
HOPKINSVILLE   CLEAR     75  63  66 S5        30.02S
BOWLING GREEN  CLEAR     72  61  68 S5        30.05R
GLASGOW        NOT AVBL
$$

KYZ024-025-028>034-038-045-046-053-290600-
NORTH CENTRAL KENTUCKY

CITY           SKY/WX    TMP DP  RH WIND       PRES   REMARKS
LOUISVILLE/SDF MOCLDY    73  57  57 VRB5      30.02F
LOUISVILLE/LOU CLEAR     72  57  59 CALM      30.04S
FORT KNOX      CLEAR     69  56  65 S5        30.02F
$$

KYZ035>037-039>044-047>052-055>060-089>105-290600-
NORTHEAST KENTUCKY

CITY           SKY/WX    TMP DP  RH WIND       PRES   REMARKS
LEXINGTON      CLOUDY    67  55  65 S7        30.07F
COVINGTON      CLOUDY    66  58  75 S6        30.04S
FRANKFORT      PTCLDY    65  55  70 SE3       30.04F
$$

KYZ054-064>069-076>088-106>120-290600-
SOUTHEAST KENTUCKY

CITY           SKY/WX    TMP DP  RH WIND       PRES   REMARKS
JACKSON        CLEAR     68  57  68 CALM      30.11R
LONDON         CLOUDY    65  55  70 CALM      30.11S
SOMERSET       CLOUDY    64  57  77 CALM      30.11R
MIDDLESBORO    CLOUDY    60  59  96 CALM      30.14S
MONTICELLO     CLOUDY    61  59  93 CALM      30.12R
$$




USA.gov is the U.S. government's official web portal to all federal, state and local government web resources and services.